Location: Poughquag
(41.6090°N, 73.6820°W)
Time: 02:14:43
(UTC-04:00)

CUBESAT XI-V - Visible Passes

Search period start: 21 July 2024 00:00
Search period end: 31 July 2024 00:00
Orbit: 657 x 678 km, 98.2° (Epoch: 20 July)

Date Brightness Start Highest point End Pass type
(mag) Time Alt. Az. Time Alt. Az. Time Alt. Az.
21 Jul ? 02:19:53 24° ESE 02:21:45 33° ENE 02:25:55 10° N visible
21 Jul ? 03:58:03 23° WSW 03:58:48 25° W 04:02:37 10° NW visible
22 Jul ? 02:52:17 46° SE 02:53:35 71° ENE 02:58:13 10° N visible
22 Jul ? 04:30:27 11° W 04:31:05 12° W 04:32:39 10° WNW visible
23 Jul ? 01:46:31 12° E 01:48:57 17° ENE 01:51:52 10° NNE visible
23 Jul ? 03:24:41 46° SW 03:25:32 54° W 03:30:06 10° NNW visible
24 Jul ? 02:18:55 25° ESE 02:20:36 32° ENE 02:24:44 10° N visible
24 Jul ? 03:57:04 25° WSW 03:57:38 25° W 04:01:30 10° NW visible
25 Jul ? 02:51:18 49° SE 02:52:24 68° ENE 02:57:01 10° N visible
25 Jul ? 04:29:27 12° W 04:29:54 12° W 04:31:39 10° WNW visible
26 Jul ? 01:45:31 12° E 01:47:46 16° ENE 01:50:36 10° NNE visible
26 Jul ? 03:23:40 50° SW 03:24:20 56° W 03:28:55 10° NNW visible
27 Jul ? 02:17:53 25° ESE 02:19:24 31° ENE 02:23:29 10° N visible
27 Jul ? 03:56:02 26° WSW 03:56:24 26° W 04:00:18 10° NW visible
28 Jul ? 02:50:15 52° SE 02:51:10 66° ENE 02:55:46 10° N visible
28 Jul ? 04:28:24 12° W 04:28:37 12° W 04:30:34 10° WNW visible
29 Jul ? 01:44:27 12° E 01:46:31 16° ENE 01:49:15 10° NNE visible
29 Jul ? 03:22:36 55° SW 03:23:04 58° W 03:27:39 10° NNW visible
30 Jul ? 02:16:48 26° E 02:18:07 30° ENE 02:22:10 10° N visible
30 Jul ? 03:54:58 27° W 03:55:06 27° W 03:59:03 10° NW visible
